Regional Weather Roundup
Issued by NWS

Home | Current Version | Previous Version | Text Only | Print | Product List | Glossary Off
Versions: 1 2 3 4 5 6 7 8 9 10 11 12 13 14 15 16 17 18 19 20 21 22 23 24 25 26 27 28 29 30 31 32 33 34 35 36 37 38 39 40 41 42 43 44 45 46 47 48 49 50

000
ASUS45 KPSR 171600
RWRAZ

PRELIMINARY ARIZONA REGIONAL HOURLY WEATHER ROUNDUP
NATIONAL WEATHER SERVICE PHOENIX AZ
900 AM MST WED SEP 17 2014

NOTE: FAIR INDICATES FEW OR NO CLOUDS BELOW 12,000 FEET WITH NO
SIGNIFICANT WEATHER AND/OR OBSTRUCTIONS TO VISIBILITY.

AZZ001>003-036-171700-
NORTHWEST ARIZONA

CITY           SKY/WX    TMP DP  RH WIND       PRES   REMARKS
KINGMAN        SUNNY     76  60  57 CALM      30.00R
$$

AZZ004>008-015-016-018-171700-
NORTH CENTRAL ARIZONA

CITY           SKY/WX    TMP DP  RH WIND       PRES   REMARKS
PRESCOTT       CLOUDY    68  59  73 NE5       30.10S
FLAGSTAFF      LGT RAIN  58  55  90 E6        30.24S
PAGE           MOSUNNY   77  54  44 VRB3      30.08R
$$

AZZ009>014-017-171700-
NORTHEAST ARIZONA

CITY           SKY/WX    TMP DP  RH WIND       PRES   REMARKS
WINSLOW        NOT AVBL
$$

AZZ023-171700-
GREATER PHOENIX AREA

CITY           SKY/WX    TMP DP  RH WIND       PRES   REMARKS
PHOENIX        CLOUDY    84  67  56 NE12      29.81R
GLENDALE       PTSUNNY   86  66  51 NE8       29.83R
DEER VALLEY    CLOUDY    83  65  54 NE5       29.84R
SCOTTSDALE     CLOUDY    84  65  52 CALM      29.85R
CHANDLER       PTSUNNY   81  72  74 CALM      29.83R
$$

AZZ027-028-171700-
SOUTHWEST MARICOPA COUNTY AND PINAL COUNTY

CITY           SKY/WX    TMP DP  RH WIND       PRES   REMARKS
CASA GRANDE    NOT AVBL
GILA BEND      PTSUNNY   82  70  65 E5        29.82R
$$

AZZ503-504-507>509-171700-
SOUTHEAST ARIZONA

CITY           SKY/WX    TMP DP  RH WIND       PRES   REMARKS
TUCSON         LGT RAIN  74  69  85 E7        29.92S
SIERRA VISTA   LGT RAIN  66  64  94 SE13      30.04S
SAFFORD        CLOUDY    73  65  75 SE9       29.99S
$$

AZZ020-021-025-026-031-171700-
SOUTHWEST ARIZONA

CITY           SKY/WX    TMP DP  RH WIND       PRES   REMARKS
YUMA           NOT AVBL
$$

CAZ031-033-041-043-047-048-061-171700-
SOUTHERN CALIFORNIA

CITY           SKY/WX    TMP DP  RH WIND       PRES   REMARKS
DOWNTOWN L.A.  SUNNY     86  63  45 CALM      29.74R
L.A. AIRPORT   MOSUNNY   84  61  45 E5        29.75R
SAN DIEGO      MOSUNNY   82  68  62 NW6       29.75R
BURBANK        SUNNY     87  59  38 CALM      29.77R
ONTARIO        MOSUNNY   88  65  46 CALM      29.79S
RIVERSIDE      SUNNY     88  64  44 CALM      29.79R
PALM SPRINGS   SUNNY     90  66  45 E5        29.80S
EL CENTRO NAS  MOSUNNY   90  65  43 CALM      29.75S
IMPERIAL       SUNNY     89  66  46 CALM      29.75R
BLYTHE         MOSUNNY   83  71  67 CALM      29.78S
$$

NVZ020-UTZ003-171700-
SOUTHERN NEVADA-UTAH

CITY           SKY/WX    TMP DP  RH WIND       PRES   REMARKS
LAS VEGAS      NOT AVBL
SALT LAKE CITY MOSUNNY   79  44  28 SE14      29.98S
$$

NMZ009-TXZ055-171700-
NEW MEXICO-WEST TEXAS

CITY           SKY/WX    TMP DP  RH WIND       PRES   REMARKS
ALBUQUERQUE    LGT RAIN  62  59  90 N3        30.21R
EL PASO        CLOUDY    70  63  78 NE3       30.09R
$$


........................KEY........................
SKY/WX - SKY CONDITION/WEATHER
TMP    - TEMPERATURE IN FAHRENHEIT
DP     - DEW POINT IN FAHRENHEIT
RH     - RELATIVE HUMIDITY IN PERCENT
WIND   - DIRECTION AND SPEED IN MILES PER HOUR (MPH)
VRB    - VARIABLE WIND DIRECTION
PRES   - MEAN SEA LEVEL PRESSURE IN INCHES OF MERCURY
         F - FALLING PRESSURE   R - RISING PRESSURE
         S - STEADY PRESSURE
VSB    - VISIBILITY IN MILES
HX     - HEAT INDEX IN FAHRENHEIT
WCI    - WIND CHILL INDEX IN FAHRENHEIT
TC     - TEMPERATURE IN CELSIUS WHICH IS ALSO KNOWN AS
         TEMPERATURE IN CENTIGRADE
AFB    - AIR FORCE BASE
         LUKE AFB IS LUKE AIR FORCE BASE
         DAVIS-MONTHAN IS DAVIS-MONTHAN AIR FORCE BASE
NAS    - NAVAL AIR STATION
         EL CENTRO NAS IS EL CENTRO NAVAL AIR STATION
N/A    - NOT AVAILABLE


USA.gov is the U.S. government's official web portal to all federal, state and local government web resources and services.